STARLINK-2149 (47738 NORAD) Tracking and Keplerian Element Data

This shows tracking and keplerian element data for the satellite.

Feedback or suggestion? Click here.




ElementValue
Catalog47738
NameSTARLINK-2149
Epoch Orbit175
Epoch Day170.58334491
Epoch Year2021
RAAN21.8525
Inclination53.0583
Eccentricity0.0005932
Argument of Perigee276.298
Mean Anonmoly333.5609
Mean Motion15.17260496
Decay Rate-0.00375167
L11 47738U 21017S 21170.58334491 -.00375167 00000-0 -19567-1 0 9998
L22 47738 53.0583 21.8525 0005932 276.2980 333.5609 15.17260496 1754

Live tracking and technical data element details for STARLINK-2149 (NORAD 47738). STARLINK-2149 can be tracked NOW for your location showing map with azimuth and elevation plus other details from your city location.

Track the satellite on the map from your city or location and see movement details for azimuth, elevation, latitude, longitude, range, height, and movement on the map or in text.







IsCatalogInMostPopularTable: catalog: 47738, numindb: 40
Update: records affected: 1



GetName: 47738 STARLINK-2149

Hit Count: updated at: Mon, 21 Jun 2021 04:28:26 GMT